Location: Waco, TX
(31.5480°N, 97.1670°W)
Time: 00:37:19
(UTC-06:00)

ISS - Pass Details

Date: 09 December 2017
Orbit: 403 x 407 km, 51.6° (Epoch: 12 December)

Event Time Altitude Azimuth Distance (km) Brightness Sun altitude
Rises 14:10:11 0° 253° (WSW) 2,317 0.6 29.6°
Reaches altitude 10° 14:12:35 10° 270° (W) 1,460 -0.5 29.4°
Maximum altitude 14:15:11 22° 322° (NW) 954 -2.0 29.1°
Drops below altitude 10° 14:17:48 10° 16° (NNE) 1,465 -1.4 28.8°
Sets 14:20:13 0° 32° (NNE) 2,327 -0.5 28.6°
